#timestamp,LO_Frequency,Hit,StdDev 
1684861215.5,286047000.9,N
1684861235.3,286047000.7,N
1684861255.2,286046998.6,N
1684861275.0,286046999.4,N
1684861275.9,286046999.4,N
1684861295.8,286046998.8,N
1684861315.6,286046998.7,N
1684861335.4,286047001.2,N
1684861355.3,286047000.7,N
1684861375.1,286047000.7,N
1684861395.9,286047000.5,N
1684861415.7,286047000.5,N
1684861435.5,286047000.5,N
1684861455.4,286047001.0,N
1684861475.2,286046999.0,N
1684861495.1,286046998.4,N
1684861496.0,286046998.4,N
1684861515.8,286046998.4,N
1684861535.6,286046999.1,N
1684861555.5,286046998.8,N
1684861575.3,286047000.7,N
1684861595.1,286047000.6,N
1684861615.9,286046998.1,N
1684861635.7,286047001.0,N
1684861655.6,286047001.1,N
1684861675.4,286046999.6,N
1684861695.2,286046998.8,N
1684861715.1,286046996.7,Y
1684861716.0,286046996.7,P
1684861735.8,286046999.5,N
1684861755.7,286046999.2,N
1684861775.5,286046998.8,N
1684861795.3,286046999.1,N
1684861815.2,286046997.0,Y
1684861835.0,286046998.2,P
1684861835.9,286046998.2,P
1684861855.8,286046998.6,P
1684861875.6,286046999.3,N
1684861895.4,286047001.2,N
1684861915.3,286047000.7,N
1684861935.1,286046998.6,N
1684861955.9,286047000.8,N
1684861975.7,286046998.5,N
1684861995.5,286046998.7,N
1684862015.4,286046999.1,N
1684862035.2,286046996.6,Y
1684862055.0,286046998.5,P
1684862055.9,286046998.5,P
1684862075.8,286047000.6,N
1684862095.6,286047001.1,N
1684862115.5,286046998.6,N
1684862135.3,286047000.4,N
1684862155.1,286047000.7,N
1684862175.9,286047001.2,N
1684862195.7,286047001.1,N
1684862215.5,286046998.1,N
1684862235.4,286047000.8,N
1684862255.2,286047000.8,N
1684862275.1,286046998.1,N
1684862276.0,286046998.1,N
1684862295.8,286047000.7,N
1684862315.6,286047000.2,N
1684862335.5,286047000.3,N
1684862355.3,286047000.5,N
1684862375.1,286047000.2,N
1684862395.9,286047000.1,N
1684862415.7,286047000.3,N
1684862435.6,286047000.0,N
1684862455.4,286047001.0,N
1684862475.2,286046998.4,N
1684862495.1,286046999.0,N
1684862496.0,286046999.0,N
1684862515.8,286046998.4,N
1684862535.6,286046998.7,N
1684862555.5,286046998.8,N
1684862575.3,286046999.0,N
1684862595.2,286046999.3,N
1684862615.0,286046997.7,N
1684862615.9,286046997.7,N
1684862635.8,286046996.9,N
1684862655.6,286046997.7,N
1684862675.4,286046999.3,N
1684862695.3,286046999.6,N
1684862715.1,286046999.0,N
1684862735.9,286046999.2,N
1684862755.7,286046999.3,N
1684862775.5,286046999.1,N
1684862795.4,286046999.3,N
1684862815.2,286046999.6,N
1684862835.1,286046996.9,Y
1684862836.0,286046996.9,P
1684862855.8,286046998.3,N
1684862875.6,286046997.3,N
1684862895.5,286046997.3,Y
1684862915.3,286046999.1,P
1684862935.2,286046996.5,P
1684862955.9,286046998.6,N
1684862975.7,286046998.7,N
1684862995.6,286046998.9,N
1684863015.4,286046998.6,N
1684863035.2,286047000.9,N
1684863055.1,286047001.0,N
1684863056.0,286047001.0,N
1684863075.8,286047001.2,N
1684863095.7,286046998.3,N
1684863115.5,286047000.9,N
1684863135.3,286046999.9,N
1684863155.2,286046998.1,N
1684863175.9,286047001.0,N
1684863195.7,286047001.2,N
1684863215.6,286047000.5,N
1684863235.4,286047002.7,N
1684863255.3,286046998.4,N
1684863275.1,286047001.0,N
1684863276.0,286047001.0,N
1684863295.8,286047001.1,N
1684863315.7,286047001.1,N
1684863335.5,286047000.7,N
1684863355.3,286047000.9,N
1684863375.2,286047000.0,N
1684863395.0,286047002.8,N
1684863395.9,286047002.8,N
1684863415.8,286046999.9,N
1684863435.6,286046999.9,N
1684863455.4,286047000.9,N
1684863475.3,286047000.0,N
1684863495.1,286047002.4,N
1684863515.9,286047002.3,N
1684863535.7,286047000.2,N
1684863555.5,286047002.1,N
1684863575.4,286047001.8,N
1684863595.2,286047004.0,Y
1684863615.1,286047001.9,P
1684863616.0,286047001.9,P
1684863635.8,286047004.0,P
1684863655.6,286047003.9,Y
1684863675.5,286046999.9,P
1684863695.3,286047002.3,N
1684863715.2,286047002.5,N
1684863735.9,286047002.5,N
1684863755.7,286047002.2,N
1684863775.6,286047001.4,N
1684863795.4,286047004.4,Y
1684863815.2,286047002.4,P
1684863835.1,286046999.7,N
1684863836.0,286046999.7,N
1684863855.8,286047002.3,N
1684863875.7,286046999.7,N
1684863895.5,286047002.3,N
1684863915.3,286047002.7,N
1684863935.2,286047002.4,N
1684863955.0,286047001.6,N
1684863955.9,286047001.6,N
1684863975.8,286046999.8,N
1684863995.6,286047002.0,N
1684864015.4,286047001.5,N
1684864035.3,286047004.2,Y
1684864055.1,286047001.6,P
1684864075.8,286047001.7,P
1684864095.7,286047002.7,P
1684864115.5,286046999.8,N
1684864135.4,286046999.8,N
1684864155.2,286047002.6,N
1684864175.0,286047002.2,N
1684864175.9,286047002.2,N
1684864195.8,286047002.4,N
1684864215.6,286047001.5,N
1684864235.4,286047001.8,N
1684864255.3,286047001.5,N
1684864275.1,286047001.3,N
1684864295.9,286047004.0,Y
1684864315.7,286046999.8,P
1684864335.5,286047002.8,P
1684864355.4,286047002.0,N
1684864375.2,286047002.8,N
1684864395.1,286047000.2,N
1684864396.0,286047000.2,N
1684864415.8,286047000.2,N
1684864435.6,286047002.3,N
1684864455.5,286047000.3,N
1684864475.3,286047001.0,N
1684864495.2,286047000.6,N
1684864515.0,286047000.5,N
1684864515.9,286047000.5,N
1684864535.8,286047002.2,N
1684864555.6,286047002.1,N
1684864575.4,286047001.9,N
1684864595.3,286047001.5,N
1684864615.1,286047001.7,N
1684864635.9,286047001.5,N
1684864655.7,286047001.9,N
1684864675.5,286047002.1,N
1684864695.4,286047002.6,N
1684864715.2,286047001.7,N
1684864735.1,286047001.5,N
1684864736.0,286047001.5,N
1684864755.8,286047001.8,N
1684864775.6,286047001.8,N
1684864795.5,286047001.8,N
